Regional Weather Roundup
Issued by NWS

Home | Current Version | Previous Version | Text Only | Print | Product List | Glossary On
Versions: 1 2 3 4 5 6 7 8 9 10 11 12 13 14 15 16 17 18 19 20 21 22 23 24 25 26 27 28 29 30 31 32 33 34 35 36 37 38 39 40 41 42 43 44 45 46 47 48 49 50
000
ASUS43 KTOP 270908
RWRKS

WEATHER ROUNDUP FOR KANSAS
NATIONAL WEATHER SERVICE GOODLAND KS
400 AM CDT WED AUG 27 2014

NOTE:  "FAIR" INDICATES FEW OR NO CLOUDS BELOW 12,000 FEET WITH NO
SIGNIFICANT WEATHER AND/OR OBSTRUCTIONS TO VISIBILITY.

KSZ001>006-013>018-027>032-041>047-271000-
NORTHWEST KANSAS

CITY           SKY/WX    TMP DP  RH WIND       PRES   REMARKS
GOODLAND       CLOUDY    65  63  93 S6        30.15R
HAYS           CLOUDY    72  64  78 S7        30.09S
HILL CITY      CLOUDY    71  66  84 N10       30.10F
RUSSELL        CLOUDY    74  67  78 S9        30.07F
$$

KSZ061>065-074>080-084>089-271000-
SOUTHWEST KANSAS

CITY           SKY/WX    TMP DP  RH WIND       PRES   REMARKS
DODGE CITY     CLOUDY    69  63  81 SW14      30.15R
ELKHART          N/A     65  61  87 SE9         N/A
GARDEN CITY    LGT RAIN  68  67  96 SE13      30.16R FOG
GREAT BEND     MOCLDY    72  64  78 SW6       30.09F
LIBERAL        CLOUDY    70  63  78 E8        30.17F
PRATT          MOCLDY    70  63  78 W6        30.11F
$$

KSZ066>073-081>083-090>101-271000-
SOUTHEAST KANSAS

CITY           SKY/WX    TMP DP  RH WIND       PRES   REMARKS
CHANUTE        PTCLDY    75  67  76 SE5       30.07S
COFFEYVILLE    CLEAR     73  67  81 SE3       30.06S
HUTCHINSON     CLOUDY    74  68  81 CALM      30.06F
MEDICINE LODGE   N/A     76  66  71 SW3       30.06F
NEWTON         CLOUDY    75  63  64 S5        30.10F
PARSONS        PTCLDY    72  67  84 CALM      30.08S
WICHITA INTL   MOCLDY    75  67  76 S8        30.06F
WICHITA JABRA  MOCLDY    79  66  64 S10       30.07F
WICHITA MCCONL MOCLDY    76  69  80 S8        30.07F
WINFIELD       PTCLDY    76  67  73 SE3       30.08F
$$

KSZ007>012-019>026-033>040-048>060-102>105-271000-
NORTHEAST KANSAS

CITY           SKY/WX    TMP DP  RH WIND       PRES   REMARKS
CONCORDIA      CLOUDY    72  69  90 NE12      30.08S
EMPORIA        MOCLDY    75  67  76 S8        30.06F
LAWRENCE       CLOUDY    78  73  84 E5        30.06F
MANHATTAN      CLOUDY    74  70  87 CALM      30.05F
MARYSVILLE     MOCLDY    72  70  94 CALM      30.07S
OLATHE IND     PTCLDY    75  70  84 E6        30.08F
OLATHE EXE     PTCLDY    75  73  93 SE5       30.07F
SALINA         CLOUDY    76  68  76 SE7       30.05F
TOPEKA BILLARD CLOUDY    78  75  90 E6        30.06S
TOPEKA FORBES  CLOUDY    76  74  93 SE5       30.06F
$$


USA.gov is the U.S. government's official web portal to all federal, state and local government web resources and services.